Location: 22
(39.7117°N, 89.5929°W)
Time: 15:56:43
(UTC-05:00)

Tiros 1 despin weight - Pass Details

Date: 10 August 2024
Orbit: 573 x 617 km, 48.2° (Epoch: 17 September)

Event Time Altitude Azimuth Distance (km) Brightness Sun altitude
Rises 22:54:55 0° 301° (WNW) 2,780 ? -27.5°
Reaches altitude 10° 22:57:12 10° 305° (NW) 1,878 ? -27.8°
Enters shadow 23:00:16 43° 327° (NNW) 812 ? -28.1°
